Location: Omaha
(41.2590°N, 95.9380°W)
Time: 15:05:28
(UTC-05:00)

Vanguard 3 - Pass Details

Date: 25 June 2018
Orbit: 508 x 3264 km, 33.3° (Epoch: 20 September)

Event Time Altitude Azimuth Distance (km) Brightness Sun altitude
Rises 08:29:15 0° 268° (W) 4,090 10.2 26.6°
Reaches altitude 10° 08:32:02 10° 257° (WSW) 3,452 9.9 27.2°
Maximum altitude 08:39:41 29° 201° (SSW) 3,028 10.0 28.6°
Drops below altitude 10° 08:51:23 10° 149° (SSE) 5,365 11.7 30.8°
Sets 08:57:10 0° 141° (SE) 6,759 12.3 31.9°
